Regional Weather Roundup
Issued by NWS Albany, NY

Current Version | Previous Version | Text Only | Print | Product List | Glossary On
Versions: 1 2 3 4 5 6 7 8 9 10 11 12 13 14 15 16 17 18 19 20 21 22 23 24 25 26 27 28 29 30 31 32 33 34 35 36 37 38 39 40 41 42 43 44 45 46 47 48 49 50
000
ASUS41 KALY 240710
RWRALY

NEW YORK STATE HOURLY WEATHER ROUNDUP
NATIONAL WEATHER SERVICE ALBANY NY
300 AM EDT FRI MAY 24 2019

NOTE: "FAIR" INDICATES FEW OR NO CLOUDS BELOW 12,000 FEET WITH NO
SIGNIFICANT WEATHER AND/OR NO OBSTRUCTIONS TO VISIBILITY.

NYZ032-033-038>043-046>054-057>066-NYZ062>081-082-084-240800-
EAST


CITY           SKY/WX    TMP DP  RH WIND       PRES   REMARKS
ALBANY         CLOUDY    62  52  69 W12       29.74F
GLENS FALLS    MOCLDY    60  52  74 W7        29.70R
POUGHKEEPSIE   MOCLDY    62  60  93 CALM      29.77S FOG
NEWBURGH       PTCLDY    64  63  94 NW7       29.80R
MONTGOMERY     FAIR      59  59 100 CALM      29.79S
WHITE PLAINS   FAIR      65  63  93 W7        29.77S
ISLIP          FAIR      64  63  96 W6        29.76F
NEW YORK CITY  FAIR      72  63  73 W16G26    29.78F
CENTRAL PARK   FAIR      68  65  90 W8        29.82S
$$

NYZ005>009-017-018-044>046-055-056-240800-
CENTRAL


CITY           SKY/WX    TMP DP  RH WIND       PRES   REMARKS
FULTON         FAIR      54  44  69 W14G22    29.86S
SYRACUSE       MOCLDY    60  46  59 W15G25    29.86S
ROME           CLOUDY    57  48  72 W16       29.83R
ELMIRA         CLOUDY    63  47  55 VRB5G17   29.92S
BINGHAMTON     CLOUDY    57  45  64 NW14G20   29.88F
MONTICELLO     FAIR      60  53  77 NW10      29.85R
$$

NYZ026>034-041>043-087-240800-
NORTH


CITY           SKY/WX    TMP DP  RH WIND       PRES   REMARKS
WATERTOWN      MOCLDY    53  49  86 SW7       29.81R
FORT DRUM      NOT AVBL
OGDENSBURG     CLOUDY    59  52  77 VRB6G14   29.73R
MASSENA        CLOUDY    60  52  74 W14       29.71R
SARANAC LAKE   CLOUDY    53  49  86 W8G17     29.70S
PLATTSBURGH    CLOUDY    62  53  72 W3        29.63S
$$

NYZ001>004-010>016-019>021-085-240800-
WEST


CITY           SKY/WX    TMP DP  RH WIND       PRES   REMARKS
NIAGARA FALLS  FAIR      55  46  71 W10       29.96F
BUFFALO        FAIR      56  47  71 NW12      29.97S
DUNKIRK        FAIR      55  45  68 W7        30.01S
JAMESTOWN      FAIR      52  45  77 NW5       30.03S
WELLSVILLE     FAIR      53  46  77 NW14G25   30.00R
ROCHESTER      FAIR      58  46  64 W14       29.93S
PENN YAN       FAIR      59  46  62 W8G22     29.93R
$$

             KEY
       WCI = WIND CHILL INDEX
       VSB = VISIBILITY
       HX  = HEAT INDEX
$$



USA.gov is the U.S. government's official web portal to all federal, state and local government web resources and services.